owner,sensor,date,latitude,longitude,vertical_datum,mass_concentration_of_oxygen_in_sea_water,qcFlag 
SCCF RECON,ioos:station:SCCF:13:1,2013-06-01T00:00:00Z,26.5255,-82.0032,2.48,5.88,1111122 
SCCF RECON,ioos:station:SCCF:13:1,2013-06-01T01:00:00Z,26.5255,-82.0032,2.504,5.83,1111122 
SCCF RECON,ioos:station:SCCF:13:1,2013-06-01T02:00:00Z,26.5255,-82.0032,2.415,5.99,1111122 
SCCF RECON,ioos:station:SCCF:13:1,2013-06-01T03:00:00Z,26.5255,-82.0032,2.335,5.57,1111122 
SCCF RECON,ioos:station:SCCF:13:1,2013-06-01T04:00:00Z,26.5255,-82.0032,2.27,5.84,1111122 
SCCF RECON,ioos:station:SCCF:13:1,2013-06-01T05:00:00Z,26.5255,-82.0032,2.211,6.0,1111122 
SCCF RECON,ioos:station:SCCF:13:1,2013-06-01T06:00:00Z,26.5255,-82.0032,2.163,6.03,1111122 
SCCF RECON,ioos:station:SCCF:13:1,2013-06-01T07:00:00Z,26.5255,-82.0032,2.13,6.18,1111122 
SCCF RECON,ioos:station:SCCF:13:1,2013-06-01T08:00:00Z,26.5255,-82.0032,2.194,6.09,1111122 
SCCF RECON,ioos:station:SCCF:13:1,2013-06-01T09:00:00Z,26.5255,-82.0032,2.33,5.75,1111122 
SCCF RECON,ioos:station:SCCF:13:1,2013-06-01T10:00:00Z,26.5255,-82.0032,2.405,5.14,1111122 
SCCF RECON,ioos:station:SCCF:13:1,2013-06-01T11:00:00Z,26.5255,-82.0032,2.458,5.21,1111122 
SCCF RECON,ioos:station:SCCF:13:1,2013-06-01T12:00:00Z,26.5255,-82.0032,2.497,5.25,1111122 
SCCF RECON,ioos:station:SCCF:13:1,2013-06-01T13:00:00Z,26.5255,-82.0032,2.54,5.42,1111122 
SCCF RECON,ioos:station:SCCF:13:1,2013-06-01T14:00:00Z,26.5255,-82.0032,2.567,5.81,1111122 
SCCF RECON,ioos:station:SCCF:13:1,2013-06-01T15:00:00Z,26.5255,-82.0032,2.53,5.95,1111122 
SCCF RECON,ioos:station:SCCF:13:1,2013-06-01T16:00:00Z,26.5255,-82.0032,2.44,5.45,1111122 
SCCF RECON,ioos:station:SCCF:13:1,2013-06-01T17:00:00Z,26.5255,-82.0032,2.359,5.98,1111122 
SCCF RECON,ioos:station:SCCF:13:1,2013-06-01T18:00:00Z,26.5255,-82.0032,2.286,6.25,1111122 
SCCF RECON,ioos:station:SCCF:13:1,2013-06-01T19:00:00Z,26.5255,-82.0032,2.231,6.54,1111122 
SCCF RECON,ioos:station:SCCF:13:1,2013-06-01T20:00:00Z,26.5255,-82.0032,2.211,6.68,1111122 
SCCF RECON,ioos:station:SCCF:13:1,2013-06-01T21:00:00Z,26.5255,-82.0032,2.297,6.79,1111122 
SCCF RECON,ioos:station:SCCF:13:1,2013-06-01T22:00:00Z,26.5255,-82.0032,2.41,5.82,1111122 
SCCF RECON,ioos:station:SCCF:13:1,2013-06-01T23:00:00Z,26.5255,-82.0032,2.44,6.87,1111122 
SCCF RECON,ioos:station:SCCF:13:1,2013-06-02T00:00:00Z,26.5255,-82.0032,2.43,6.68,1111122 
SCCF RECON,ioos:station:SCCF:13:1,2013-06-02T01:00:00Z,26.5255,-82.0032,2.466,6.69,1111122 
SCCF RECON,ioos:station:SCCF:13:1,2013-06-02T02:00:00Z,26.5255,-82.0032,2.46,6.58,1111122 
SCCF RECON,ioos:station:SCCF:13:1,2013-06-02T03:00:00Z,26.5255,-82.0032,2.401,6.32,1111122 
SCCF RECON,ioos:station:SCCF:13:1,2013-06-02T04:00:00Z,26.5255,-82.0032,2.378,5.9,1111122 
SCCF RECON,ioos:station:SCCF:13:1,2013-06-02T05:00:00Z,26.5255,-82.0032,2.32,5.65,1111122 
SCCF RECON,ioos:station:SCCF:13:1,2013-06-02T06:00:00Z,26.5255,-82.0032,2.253,5.66,1111122 
SCCF RECON,ioos:station:SCCF:13:1,2013-06-02T07:00:00Z,26.5255,-82.0032,2.196,5.98,1111122 
SCCF RECON,ioos:station:SCCF:13:1,2013-06-02T08:00:00Z,26.5255,-82.0032,2.17,6.17,1111122 
SCCF RECON,ioos:station:SCCF:13:1,2013-06-02T09:00:00Z,26.5255,-82.0032,2.218,6.23,1111122 
SCCF RECON,ioos:station:SCCF:13:1,2013-06-02T10:00:00Z,26.5255,-82.0032,2.36,5.69,1111122 
SCCF RECON,ioos:station:SCCF:13:1,2013-06-02T11:00:00Z,26.5255,-82.0032,2.429,5.19,1111122 
SCCF RECON,ioos:station:SCCF:13:1,2013-06-02T12:00:00Z,26.5255,-82.0032,2.428,5.25,1111122 
SCCF RECON,ioos:station:SCCF:13:1,2013-06-02T13:00:00Z,26.5255,-82.0032,2.487,5.76,1111122 
SCCF RECON,ioos:station:SCCF:13:1,2013-06-02T14:00:00Z,26.5255,-82.0032,2.548,5.93,1111122 
SCCF RECON,ioos:station:SCCF:13:1,2013-06-02T15:00:00Z,26.5255,-82.0032,2.543,6.02,1111122 
SCCF RECON,ioos:station:SCCF:13:1,2013-06-02T16:00:00Z,26.5255,-82.0032,2.471,5.85,1111122 
SCCF RECON,ioos:station:SCCF:13:1,2013-06-02T17:00:00Z,26.5255,-82.0032,2.359,6.19,1111122 
SCCF RECON,ioos:station:SCCF:13:1,2013-06-02T18:00:00Z,26.5255,-82.0032,2.276,6.52,1111122 
SCCF RECON,ioos:station:SCCF:13:1,2013-06-02T19:00:00Z,26.5255,-82.0032,2.219,6.69,1111122 
SCCF RECON,ioos:station:SCCF:13:1,2013-06-02T20:00:00Z,26.5255,-82.0032,2.176,6.67,1111122 
SCCF RECON,ioos:station:SCCF:13:1,2013-06-02T21:00:00Z,26.5255,-82.0032,2.191,6.72,1111122 
SCCF RECON,ioos:station:SCCF:13:1,2013-06-02T22:00:00Z,26.5255,-82.0032,2.28,6.87,1111122 
SCCF RECON,ioos:station:SCCF:13:1,2013-06-02T23:00:00Z,26.5255,-82.0032,2.3,6.22,1111122 
SCCF RECON,ioos:station:SCCF:13:1,2013-06-03T00:00:00Z,26.5255,-82.0032,2.35,6.41,1111122 
SCCF RECON,ioos:station:SCCF:13:1,2013-06-03T01:00:00Z,26.5255,-82.0032,2.41,6.53,1111122 
SCCF RECON,ioos:station:SCCF:13:1,2013-06-03T02:00:00Z,26.5255,-82.0032,2.47,6.64,1111122 
SCCF RECON,ioos:station:SCCF:13:1,2013-06-03T03:00:00Z,26.5255,-82.0032,2.5,6.4,1111122 
SCCF RECON,ioos:station:SCCF:13:1,2013-06-03T04:00:00Z,26.5255,-82.0032,2.494,6.23,1111122 
SCCF RECON,ioos:station:SCCF:13:1,2013-06-03T05:00:00Z,26.5255,-82.0032,2.439,5.93,1111122 
SCCF RECON,ioos:station:SCCF:13:1,2013-06-03T06:00:00Z,26.5255,-82.0032,2.376,6.09,1111122 
SCCF RECON,ioos:station:SCCF:13:1,2013-06-03T07:00:00Z,26.5255,-82.0032,2.323,5.36,1111122 
SCCF RECON,ioos:station:SCCF:13:1,2013-06-03T08:00:00Z,26.5255,-82.0032,2.271,5.42,1111122 
SCCF RECON,ioos:station:SCCF:13:1,2013-06-03T09:00:00Z,26.5255,-82.0032,2.25,5.49,1111122 
SCCF RECON,ioos:station:SCCF:13:1,2013-06-03T10:00:00Z,26.5255,-82.0032,2.31,5.72,1111122 
SCCF RECON,ioos:station:SCCF:13:1,2013-06-03T11:00:00Z,26.5255,-82.0032,2.429,5.13,1111122 
SCCF RECON,ioos:station:SCCF:13:1,2013-06-03T12:00:00Z,26.5255,-82.0032,2.49,5.11,1111122 
SCCF RECON,ioos:station:SCCF:13:1,2013-06-03T13:00:00Z,26.5255,-82.0032,2.53,5.32,1111122 
SCCF RECON,ioos:station:SCCF:13:1,2013-06-03T14:00:00Z,26.5255,-82.0032,2.582,5.73,1111122 
SCCF RECON,ioos:station:SCCF:13:1,2013-06-03T15:00:00Z,26.5255,-82.0032,2.614,5.75,1111122 
SCCF RECON,ioos:station:SCCF:13:1,2013-06-03T16:00:00Z,26.5255,-82.0032,2.553,5.79,1111122 
SCCF RECON,ioos:station:SCCF:13:1,2013-06-03T17:00:00Z,26.5255,-82.0032,2.48,5.4,1111122 
SCCF RECON,ioos:station:SCCF:13:1,2013-06-03T18:00:00Z,26.5255,-82.0032,2.413,5.32,1111122 
SCCF RECON,ioos:station:SCCF:13:1,2013-06-03T19:00:00Z,26.5255,-82.0032,2.341,6.0,1111122 
SCCF RECON,ioos:station:SCCF:13:1,2013-06-03T20:00:00Z,26.5255,-82.0032,2.241,5.91,1111122 
SCCF RECON,ioos:station:SCCF:13:1,2013-06-03T21:00:00Z,26.5255,-82.0032,2.159,5.82,1111122 
SCCF RECON,ioos:station:SCCF:13:1,2013-06-03T22:00:00Z,26.5255,-82.0032,2.12,5.76,1111122 
SCCF RECON,ioos:station:SCCF:13:1,2013-06-03T23:00:00Z,26.5255,-82.0032,2.179,5.83,1111122 
SCCF RECON,ioos:station:SCCF:13:1,2013-06-04T00:00:00Z,26.5255,-82.0032,2.26,5.89,1111122 
SCCF RECON,ioos:station:SCCF:13:1,2013-06-04T01:00:00Z,26.5255,-82.0032,2.32,5.23,1111122 
SCCF RECON,ioos:station:SCCF:13:1,2013-06-04T02:00:00Z,26.5255,-82.0032,2.382,4.9,1111122 
SCCF RECON,ioos:station:SCCF:13:1,2013-06-04T03:00:00Z,26.5255,-82.0032,2.44,5.27,1111122 
SCCF RECON,ioos:station:SCCF:13:1,2013-06-04T04:00:00Z,26.5255,-82.0032,2.47,5.42,1111122 
SCCF RECON,ioos:station:SCCF:13:1,2013-06-04T05:00:00Z,26.5255,-82.0032,2.439,5.37,1111122 
SCCF RECON,ioos:station:SCCF:13:1,2013-06-04T06:00:00Z,26.5255,-82.0032,2.41,5.32,1111122 
SCCF RECON,ioos:station:SCCF:13:1,2013-06-04T07:00:00Z,26.5255,-82.0032,2.51,5.21,1111122 
SCCF RECON,ioos:station:SCCF:13:1,2013-06-04T08:00:00Z,26.5255,-82.0032,2.338,5.53,1111122 
SCCF RECON,ioos:station:SCCF:13:1,2013-06-04T09:00:00Z,26.5255,-82.0032,2.248,4.76,1111122 
SCCF RECON,ioos:station:SCCF:13:1,2013-06-04T10:00:00Z,26.5255,-82.0032,2.275,4.9,1111122 
SCCF RECON,ioos:station:SCCF:13:1,2013-06-04T11:00:00Z,26.5255,-82.0032,2.36,4.83,1111122 
SCCF RECON,ioos:station:SCCF:13:1,2013-06-04T12:00:00Z,26.5255,-82.0032,2.46,4.41,1111122 
SCCF RECON,ioos:station:SCCF:13:1,2013-06-04T13:00:00Z,26.5255,-82.0032,2.53,4.49,1111122 
SCCF RECON,ioos:station:SCCF:13:1,2013-06-04T14:00:00Z,26.5255,-82.0032,2.579,5.05,1111122 
SCCF RECON,ioos:station:SCCF:13:1,2013-06-04T15:00:00Z,26.5255,-82.0032,2.606,5.36,1111122 
SCCF RECON,ioos:station:SCCF:13:1,2013-06-04T16:00:00Z,26.5255,-82.0032,2.61,5.46,1111122 
SCCF RECON,ioos:station:SCCF:13:1,2013-06-04T17:00:00Z,26.5255,-82.0032,2.512,5.16,1111122 
SCCF RECON,ioos:station:SCCF:13:1,2013-06-04T18:00:00Z,26.5255,-82.0032,2.411,5.36,1111122 
SCCF RECON,ioos:station:SCCF:13:1,2013-06-04T19:00:00Z,26.5255,-82.0032,2.323,5.6,1111122 
SCCF RECON,ioos:station:SCCF:13:1,2013-06-04T20:00:00Z,26.5255,-82.0032,2.23,5.73,1111122 
SCCF RECON,ioos:station:SCCF:13:1,2013-06-04T21:00:00Z,26.5255,-82.0032,2.139,5.59,1111122 
SCCF RECON,ioos:station:SCCF:13:1,2013-06-04T22:00:00Z,26.5255,-82.0032,2.067,5.86,1111122 
SCCF RECON,ioos:station:SCCF:13:1,2013-06-04T23:00:00Z,26.5255,-82.0032,2.036,5.87,1111122 
SCCF RECON,ioos:station:SCCF:13:1,2013-06-05T00:00:00Z,26.5255,-82.0032,2.12,5.71,1111122 
SCCF RECON,ioos:station:SCCF:13:1,2013-06-05T01:00:00Z,26.5255,-82.0032,2.223,5.64,1111122 
SCCF RECON,ioos:station:SCCF:13:1,2013-06-05T02:00:00Z,26.5255,-82.0032,2.26,5.55,1111122 
SCCF RECON,ioos:station:SCCF:13:1,2013-06-05T03:00:00Z,26.5255,-82.0032,2.29,4.8,1111122 
SCCF RECON,ioos:station:SCCF:13:1,2013-06-05T04:00:00Z,26.5255,-82.0032,2.34,5.22,1111122 
SCCF RECON,ioos:station:SCCF:13:1,2013-06-05T05:00:00Z,26.5255,-82.0032,2.376,5.3,1111122 
SCCF RECON,ioos:station:SCCF:13:1,2013-06-05T06:00:00Z,26.5255,-82.0032,2.35,5.41,1111122 
SCCF RECON,ioos:station:SCCF:13:1,2013-06-05T07:00:00Z,26.5255,-82.0032,2.308,5.21,1111122 
SCCF RECON,ioos:station:SCCF:13:1,2013-06-05T08:00:00Z,26.5255,-82.0032,2.257,5.15,1111122 
SCCF RECON,ioos:station:SCCF:13:1,2013-06-05T09:00:00Z,26.5255,-82.0032,2.204,4.93,1111122 
SCCF RECON,ioos:station:SCCF:13:1,2013-06-05T10:00:00Z,26.5255,-82.0032,2.172,4.92,1111122 
SCCF RECON,ioos:station:SCCF:13:1,2013-06-05T11:00:00Z,26.5255,-82.0032,2.21,5.08,1111122 
SCCF RECON,ioos:station:SCCF:13:1,2013-06-05T12:00:00Z,26.5255,-82.0032,2.34,3.81,1111122 
SCCF RECON,ioos:station:SCCF:13:1,2013-06-05T13:00:00Z,26.5255,-82.0032,2.415,4.72,1111122 
SCCF RECON,ioos:station:SCCF:13:1,2013-06-05T14:00:00Z,26.5255,-82.0032,2.459,5.06,1111122 
SCCF RECON,ioos:station:SCCF:13:1,2013-06-05T15:00:00Z,26.5255,-82.0032,2.521,5.17,1111122 
SCCF RECON,ioos:station:SCCF:13:1,2013-06-05T16:00:00Z,26.5255,-82.0032,2.572,5.29,1111122 
SCCF RECON,ioos:station:SCCF:13:1,2013-06-05T17:00:00Z,26.5255,-82.0032,2.54,5.48,1111122 
SCCF RECON,ioos:station:SCCF:13:1,2013-06-05T18:00:00Z,26.5255,-82.0032,2.412,5.25,1111122 
SCCF RECON,ioos:station:SCCF:13:1,2013-06-05T19:00:00Z,26.5255,-82.0032,2.297,5.27,1111122 
SCCF RECON,ioos:station:SCCF:13:1,2013-06-05T20:00:00Z,26.5255,-82.0032,2.22,5.66,1111122 
SCCF RECON,ioos:station:SCCF:13:1,2013-06-05T21:00:00Z,26.5255,-82.0032,2.13,5.62,1111122 
SCCF RECON,ioos:station:SCCF:13:1,2013-06-05T22:00:00Z,26.5255,-82.0032,2.04,5.5,1111122 
SCCF RECON,ioos:station:SCCF:13:1,2013-06-05T23:00:00Z,26.5255,-82.0032,1.972,5.6,1111122 
SCCF RECON,ioos:station:SCCF:13:1,2013-06-06T00:00:00Z,26.5255,-82.0032,2.012,5.52,1111122 
SCCF RECON,ioos:station:SCCF:13:1,2013-06-06T01:00:00Z,26.5255,-82.0032,2.14,5.49,1111122 
SCCF RECON,ioos:station:SCCF:13:1,2013-06-06T02:00:00Z,26.5255,-82.0032,2.229,5.4,1111122 
SCCF RECON,ioos:station:SCCF:13:1,2013-06-06T03:00:00Z,26.5255,-82.0032,2.281,4.95,1111122 
SCCF RECON,ioos:station:SCCF:13:1,2013-06-06T04:00:00Z,26.5255,-82.0032,2.329,4.92,1111122 
SCCF RECON,ioos:station:SCCF:13:1,2013-06-06T05:00:00Z,26.5255,-82.0032,2.381,5.13,1111122 
SCCF RECON,ioos:station:SCCF:13:1,2013-06-06T06:00:00Z,26.5255,-82.0032,2.45,5.45,1111122 
SCCF RECON,ioos:station:SCCF:13:1,2013-06-06T07:00:00Z,26.5255,-82.0032,2.377,5.47,1111122 
SCCF RECON,ioos:station:SCCF:13:1,2013-06-06T08:00:00Z,26.5255,-82.0032,2.45,5.43,1111122 
SCCF RECON,ioos:station:SCCF:13:1,2013-06-06T09:00:00Z,26.5255,-82.0032,2.451,5.35,1111122 
SCCF RECON,ioos:station:SCCF:13:1,2013-06-06T10:00:00Z,26.5255,-82.0032,2.421,5.05,1111122 
SCCF RECON,ioos:station:SCCF:13:1,2013-06-06T11:00:00Z,26.5255,-82.0032,2.409,5.14,1111122 
SCCF RECON,ioos:station:SCCF:13:1,2013-06-06T12:00:00Z,26.5255,-82.0032,2.49,4.49,1111122 
SCCF RECON,ioos:station:SCCF:13:1,2013-06-06T13:00:00Z,26.5255,-82.0032,2.598,5.26,1111122 
SCCF RECON,ioos:station:SCCF:13:1,2013-06-06T14:00:00Z,26.5255,-82.0032,2.718,5.33,1111122 
SCCF RECON,ioos:station:SCCF:13:1,2013-06-06T15:00:00Z,26.5255,-82.0032,2.783,5.41,1111122 
SCCF RECON,ioos:station:SCCF:13:1,2013-06-06T16:00:00Z,26.5255,-82.0032,2.846,5.5,1111122 
SCCF RECON,ioos:station:SCCF:13:1,2013-06-06T17:00:00Z,26.5255,-82.0032,2.859,5.54,1111122 
SCCF RECON,ioos:station:SCCF:13:1,2013-06-06T18:00:00Z,26.5255,-82.0032,2.853,5.58,1111122 
SCCF RECON,ioos:station:SCCF:13:1,2013-06-06T19:00:00Z,26.5255,-82.0032,2.761,5.52,1111122 
SCCF RECON,ioos:station:SCCF:13:1,2013-06-06T20:00:00Z,26.5255,-82.0032,2.683,5.54,1111122 
SCCF RECON,ioos:station:SCCF:13:1,2013-06-06T21:00:00Z,26.5255,-82.0032,2.583,5.45,1111122 
SCCF RECON,ioos:station:SCCF:13:1,2013-06-06T22:00:00Z,26.5255,-82.0032,2.47,5.5,1111122 
SCCF RECON,ioos:station:SCCF:13:1,2013-06-06T23:00:00Z,26.5255,-82.0032,2.345,5.65,1111122 
SCCF RECON,ioos:station:SCCF:13:1,2013-06-07T00:00:00Z,26.5255,-82.0032,2.31,5.65,1111122 
SCCF RECON,ioos:station:SCCF:13:1,2013-06-07T01:00:00Z,26.5255,-82.0032,2.36,5.57,1111122 
SCCF RECON,ioos:station:SCCF:13:1,2013-06-07T02:00:00Z,26.5255,-82.0032,2.459,5.58,1111122 
SCCF RECON,ioos:station:SCCF:13:1,2013-06-07T03:00:00Z,26.5255,-82.0032,2.511,5.49,1111122 
SCCF RECON,ioos:station:SCCF:13:1,2013-06-07T04:00:00Z,26.5255,-82.0032,2.49,5.37,1111122 
SCCF RECON,ioos:station:SCCF:13:1,2013-06-07T05:00:00Z,26.5255,-82.0032,2.54,5.09,1111122 
SCCF RECON,ioos:station:SCCF:13:1,2013-06-07T06:00:00Z,26.5255,-82.0032,2.567,4.93,1111122 
SCCF RECON,ioos:station:SCCF:13:1,2013-06-07T07:00:00Z,26.5255,-82.0032,2.56,4.08,1111122 
SCCF RECON,ioos:station:SCCF:13:1,2013-06-07T08:00:00Z,26.5255,-82.0032,2.51,3.97,1111122 
SCCF RECON,ioos:station:SCCF:13:1,2013-06-07T09:00:00Z,26.5255,-82.0032,2.45,4.49,1111122 
SCCF RECON,ioos:station:SCCF:13:1,2013-06-07T10:00:00Z,26.5255,-82.0032,2.41,5.15,1111122 
SCCF RECON,ioos:station:SCCF:13:1,2013-06-07T11:00:00Z,26.5255,-82.0032,2.45,5.24,1111122 
SCCF RECON,ioos:station:SCCF:13:1,2013-06-07T12:00:00Z,26.5255,-82.0032,2.459,5.25,1111122 
SCCF RECON,ioos:station:SCCF:13:1,2013-06-07T13:00:00Z,26.5255,-82.0032,2.46,5.15,1111122 
SCCF RECON,ioos:station:SCCF:13:1,2013-06-07T14:00:00Z,26.5255,-82.0032,2.53,3.72,1111122 
SCCF RECON,ioos:station:SCCF:13:1,2013-06-07T15:00:00Z,26.5255,-82.0032,2.625,4.85,1111122 
SCCF RECON,ioos:station:SCCF:13:1,2013-06-07T16:00:00Z,26.5255,-82.0032,2.689,5.15,1111122 
SCCF RECON,ioos:station:SCCF:13:1,2013-06-07T17:00:00Z,26.5255,-82.0032,2.718,5.13,1111122 
SCCF RECON,ioos:station:SCCF:13:1,2013-06-07T18:00:00Z,26.5255,-82.0032,2.654,5.15,1111122 
SCCF RECON,ioos:station:SCCF:13:1,2013-06-07T19:00:00Z,26.5255,-82.0032,2.56,4.94,1111122 
SCCF RECON,ioos:station:SCCF:13:1,2013-06-07T20:00:00Z,26.5255,-82.0032,2.454,5.18,1111122 
SCCF RECON,ioos:station:SCCF:13:1,2013-06-07T21:00:00Z,26.5255,-82.0032,2.384,5.83,1111122 
SCCF RECON,ioos:station:SCCF:13:1,2013-06-07T22:00:00Z,26.5255,-82.0032,2.28,6.0,1111122 
SCCF RECON,ioos:station:SCCF:13:1,2013-06-07T23:00:00Z,26.5255,-82.0032,2.188,5.96,1111122 
SCCF RECON,ioos:station:SCCF:13:1,2013-06-08T00:00:00Z,26.5255,-82.0032,2.115,6.35,1111122 
SCCF RECON,ioos:station:SCCF:13:1,2013-06-08T01:00:00Z,26.5255,-82.0032,2.07,6.15,1111122 
SCCF RECON,ioos:station:SCCF:13:1,2013-06-08T02:00:00Z,26.5255,-82.0032,2.12,6.13,1111122 
SCCF RECON,ioos:station:SCCF:13:1,2013-06-08T03:00:00Z,26.5255,-82.0032,2.235,6.25,1111122 
SCCF RECON,ioos:station:SCCF:13:1,2013-06-08T04:00:00Z,26.5255,-82.0032,2.3,6.3,1111122 
SCCF RECON,ioos:station:SCCF:13:1,2013-06-08T05:00:00Z,26.5255,-82.0032,2.36,5.96,1111122 
SCCF RECON,ioos:station:SCCF:13:1,2013-06-08T06:00:00Z,26.5255,-82.0032,2.41,5.77,1111122 
SCCF RECON,ioos:station:SCCF:13:1,2013-06-08T07:00:00Z,26.5255,-82.0032,2.43,5.5,1111122 
SCCF RECON,ioos:station:SCCF:13:1,2013-06-08T08:00:00Z,26.5255,-82.0032,2.392,5.28,1111122 
SCCF RECON,ioos:station:SCCF:13:1,2013-06-08T09:00:00Z,26.5255,-82.0032,2.35,5.0,1111122 
SCCF RECON,ioos:station:SCCF:13:1,2013-06-08T10:00:00Z,26.5255,-82.0032,2.33,5.38,1111122 
SCCF RECON,ioos:station:SCCF:13:1,2013-06-08T11:00:00Z,26.5255,-82.0032,2.302,5.15,1111122 
SCCF RECON,ioos:station:SCCF:13:1,2013-06-08T12:00:00Z,26.5255,-82.0032,2.34,5.42,1111122 
SCCF RECON,ioos:station:SCCF:13:1,2013-06-08T13:00:00Z,26.5255,-82.0032,2.41,4.78,1111122 
SCCF RECON,ioos:station:SCCF:13:1,2013-06-08T14:00:00Z,26.5255,-82.0032,2.49,4.45,1111122 
SCCF RECON,ioos:station:SCCF:13:1,2013-06-08T15:00:00Z,26.5255,-82.0032,2.56,6.02,1111122 
SCCF RECON,ioos:station:SCCF:13:1,2013-06-08T16:00:00Z,26.5255,-82.0032,2.628,5.76,1111122 
SCCF RECON,ioos:station:SCCF:13:1,2013-06-08T17:00:00Z,26.5255,-82.0032,2.656,6.15,1111122 
SCCF RECON,ioos:station:SCCF:13:1,2013-06-08T18:00:00Z,26.5255,-82.0032,2.67,6.51,1111122 
SCCF RECON,ioos:station:SCCF:13:1,2013-06-08T19:00:00Z,26.5255,-82.0032,2.63,6.79,1111122 
SCCF RECON,ioos:station:SCCF:13:1,2013-06-08T20:00:00Z,26.5255,-82.0032,2.53,6.54,1111122 
SCCF RECON,ioos:station:SCCF:13:1,2013-06-08T21:00:00Z,26.5255,-82.0032,2.41,6.92,1111122 
SCCF RECON,ioos:station:SCCF:13:1,2013-06-08T22:00:00Z,26.5255,-82.0032,2.335,7.57,1111122 
SCCF RECON,ioos:station:SCCF:13:1,2013-06-08T23:00:00Z,26.5255,-82.0032,2.248,7.48,1111122 
SCCF RECON,ioos:station:SCCF:13:1,2013-06-09T00:00:00Z,26.5255,-82.0032,2.159,7.47,1111122 
SCCF RECON,ioos:station:SCCF:13:1,2013-06-09T01:00:00Z,26.5255,-82.0032,2.091,7.47,1111122 
SCCF RECON,ioos:station:SCCF:13:1,2013-06-09T02:00:00Z,26.5255,-82.0032,2.08,7.08,1111122 
SCCF RECON,ioos:station:SCCF:13:1,2013-06-09T03:00:00Z,26.5255,-82.0032,2.18,7.02,1111122 
SCCF RECON,ioos:station:SCCF:13:1,2013-06-09T04:00:00Z,26.5255,-82.0032,2.24,7.09,1111122 
SCCF RECON,ioos:station:SCCF:13:1,2013-06-09T05:00:00Z,26.5255,-82.0032,2.32,7.05,1111122 
SCCF RECON,ioos:station:SCCF:13:1,2013-06-09T06:00:00Z,26.5255,-82.0032,2.388,6.26,1111122 
SCCF RECON,ioos:station:SCCF:13:1,2013-06-09T07:00:00Z,26.5255,-82.0032,2.4,6.68,1111122 
SCCF RECON,ioos:station:SCCF:13:1,2013-06-09T08:00:00Z,26.5255,-82.0032,2.39,6.73,1111122 
SCCF RECON,ioos:station:SCCF:13:1,2013-06-09T09:00:00Z,26.5255,-82.0032,2.37,6.28,1111122 
SCCF RECON,ioos:station:SCCF:13:1,2013-06-09T10:00:00Z,26.5255,-82.0032,2.36,5.98,1111122 
SCCF RECON,ioos:station:SCCF:13:1,2013-06-09T11:00:00Z,26.5255,-82.0032,2.294,6.32,1111122 
SCCF RECON,ioos:station:SCCF:13:1,2013-06-09T12:00:00Z,26.5255,-82.0032,2.24,5.78,1111122 
SCCF RECON,ioos:station:SCCF:13:1,2013-06-09T13:00:00Z,26.5255,-82.0032,2.24,6.3,1111122 
SCCF RECON,ioos:station:SCCF:13:1,2013-06-09T14:00:00Z,26.5255,-82.0032,2.367,6.12,1111122 
SCCF RECON,ioos:station:SCCF:13:1,2013-06-09T15:00:00Z,26.5255,-82.0032,2.48,5.45,1111122 
SCCF RECON,ioos:station:SCCF:13:1,2013-06-09T16:00:00Z,26.5255,-82.0032,2.55,6.6,1111122 
SCCF RECON,ioos:station:SCCF:13:1,2013-06-09T17:00:00Z,26.5255,-82.0032,2.6,7.08,1111122 
SCCF RECON,ioos:station:SCCF:13:1,2013-06-09T18:00:00Z,26.5255,-82.0032,2.65,7.31,1111122 
SCCF RECON,ioos:station:SCCF:13:1,2013-06-09T19:00:00Z,26.5255,-82.0032,2.632,7.61,1111122 
SCCF RECON,ioos:station:SCCF:13:1,2013-06-09T20:00:00Z,26.5255,-82.0032,2.552,7.38,1111122 
SCCF RECON,ioos:station:SCCF:13:1,2013-06-09T21:00:00Z,26.5255,-82.0032,2.443,7.38,1111122 
SCCF RECON,ioos:station:SCCF:13:1,2013-06-09T22:00:00Z,26.5255,-82.0032,2.34,8.16,1111122 
SCCF RECON,ioos:station:SCCF:13:1,2013-06-09T23:00:00Z,26.5255,-82.0032,2.261,8.4,1111122 
SCCF RECON,ioos:station:SCCF:13:1,2013-06-10T00:00:00Z,26.5255,-82.0032,2.188,8.33,1111122 
SCCF RECON,ioos:station:SCCF:13:1,2013-06-10T01:00:00Z,26.5255,-82.0032,2.12,8.22,1111122 
SCCF RECON,ioos:station:SCCF:13:1,2013-06-10T02:00:00Z,26.5255,-82.0032,2.088,7.81,1111122 
SCCF RECON,ioos:station:SCCF:13:1,2013-06-10T03:00:00Z,26.5255,-82.0032,2.163,7.63,1111122 
SCCF RECON,ioos:station:SCCF:13:1,2013-06-10T04:00:00Z,26.5255,-82.0032,2.27,7.58,1111122 
SCCF RECON,ioos:station:SCCF:13:1,2013-06-10T05:00:00Z,26.5255,-82.0032,2.362,7.3,1111122 
SCCF RECON,ioos:station:SCCF:13:1,2013-06-10T06:00:00Z,26.5255,-82.0032,2.421,7.04,1111122 
SCCF RECON,ioos:station:SCCF:13:1,2013-06-10T07:00:00Z,26.5255,-82.0032,2.455,7.17,1111122 
SCCF RECON,ioos:station:SCCF:13:1,2013-06-10T08:00:00Z,26.5255,-82.0032,2.48,7.18,1111122 
SCCF RECON,ioos:station:SCCF:13:1,2013-06-10T09:00:00Z,26.5255,-82.0032,2.462,6.78,1111122 
SCCF RECON,ioos:station:SCCF:13:1,2013-06-10T10:00:00Z,26.5255,-82.0032,2.41,6.65,1111122 
SCCF RECON,ioos:station:SCCF:13:1,2013-06-10T11:00:00Z,26.5255,-82.0032,2.36,6.31,1111122 
SCCF RECON,ioos:station:SCCF:13:1,2013-06-10T12:00:00Z,26.5255,-82.0032,2.312,5.99,1111122 
SCCF RECON,ioos:station:SCCF:13:1,2013-06-10T13:00:00Z,26.5255,-82.0032,2.3,6.35,1111122 
SCCF RECON,ioos:station:SCCF:13:1,2013-06-10T14:00:00Z,26.5255,-82.0032,2.361,6.18,1111122 
SCCF RECON,ioos:station:SCCF:13:1,2013-06-10T15:00:00Z,26.5255,-82.0032,2.45,5.41,1111122 
SCCF RECON,ioos:station:SCCF:13:1,2013-06-10T16:00:00Z,26.5255,-82.0032,2.53,6.83,1111122 
SCCF RECON,ioos:station:SCCF:13:1,2013-06-10T17:00:00Z,26.5255,-82.0032,2.575,7.1,1111122 
SCCF RECON,ioos:station:SCCF:13:1,2013-06-10T18:00:00Z,26.5255,-82.0032,2.625,7.5,1111122 
SCCF RECON,ioos:station:SCCF:13:1,2013-06-10T19:00:00Z,26.5255,-82.0032,2.64,7.7,1111122 
SCCF RECON,ioos:station:SCCF:13:1,2013-06-10T20:00:00Z,26.5255,-82.0032,2.61,7.88,1111122 
SCCF RECON,ioos:station:SCCF:13:1,2013-06-10T21:00:00Z,26.5255,-82.0032,2.526,7.5,1111122 
SCCF RECON,ioos:station:SCCF:13:1,2013-06-10T22:00:00Z,26.5255,-82.0032,2.405,7.34,1111122 
SCCF RECON,ioos:station:SCCF:13:1,2013-06-10T23:00:00Z,26.5255,-82.0032,2.311,7.93,1111122 
SCCF RECON,ioos:station:SCCF:13:1,2013-06-11T00:00:00Z,26.5255,-82.0032,2.241,8.07,1111122 
SCCF RECON,ioos:station:SCCF:13:1,2013-06-11T01:00:00Z,26.5255,-82.0032,2.159,8.01,1111122 
SCCF RECON,ioos:station:SCCF:13:1,2013-06-11T02:00:00Z,26.5255,-82.0032,2.096,7.86,1111122 
SCCF RECON,ioos:station:SCCF:13:1,2013-06-11T03:00:00Z,26.5255,-82.0032,2.074,7.37,1111122 
SCCF RECON,ioos:station:SCCF:13:1,2013-06-11T04:00:00Z,26.5255,-82.0032,2.13,7.34,1111122 
SCCF RECON,ioos:station:SCCF:13:1,2013-06-11T05:00:00Z,26.5255,-82.0032,2.24,7.39,1111122 
SCCF RECON,ioos:station:SCCF:13:1,2013-06-11T06:00:00Z,26.5255,-82.0032,2.343,7.02,1111122 
SCCF RECON,ioos:station:SCCF:13:1,2013-06-11T07:00:00Z,26.5255,-82.0032,2.42,6.75,1111122 
SCCF RECON,ioos:station:SCCF:13:1,2013-06-11T08:00:00Z,26.5255,-82.0032,2.444,6.58,1111122 
SCCF RECON,ioos:station:SCCF:13:1,2013-06-11T09:00:00Z,26.5255,-82.0032,2.455,6.42,1111122 
SCCF RECON,ioos:station:SCCF:13:1,2013-06-11T10:00:00Z,26.5255,-82.0032,2.428,6.19,1111122 
SCCF RECON,ioos:station:SCCF:13:1,2013-06-11T11:00:00Z,26.5255,-82.0032,2.377,6.04,1111122 
SCCF RECON,ioos:station:SCCF:13:1,2013-06-11T12:00:00Z,26.5255,-82.0032,2.321,5.71,1111122 
SCCF RECON,ioos:station:SCCF:13:1,2013-06-11T13:00:00Z,26.5255,-82.0032,2.303,5.48,1111122 
SCCF RECON,ioos:station:SCCF:13:1,2013-06-11T14:00:00Z,26.5255,-82.0032,2.32,5.49,1111122 
SCCF RECON,ioos:station:SCCF:13:1,2013-06-11T15:00:00Z,26.5255,-82.0032,2.368,4.45,1111122 
SCCF RECON,ioos:station:SCCF:13:1,2013-06-11T16:00:00Z,26.5255,-82.0032,2.47,5.4,1111122 
SCCF RECON,ioos:station:SCCF:13:1,2013-06-11T17:00:00Z,26.5255,-82.0032,2.55,6.68,1111122 
SCCF RECON,ioos:station:SCCF:13:1,2013-06-11T18:00:00Z,26.5255,-82.0032,2.571,6.75,1111122 
SCCF RECON,ioos:station:SCCF:13:1,2013-06-11T19:00:00Z,26.5255,-82.0032,2.598,7.16,1111122 
SCCF RECON,ioos:station:SCCF:13:1,2013-06-11T20:00:00Z,26.5255,-82.0032,2.599,7.36,1111122 